MEASAT-3B

Last updated on Jan. 15, 2021, 6:31 a.m. UTC

1 40147U 14054B   21014.95086553 -.00000248  00000-0  00000-0 0  9994
2 40147   0.0381 329.3162 0002275 344.0672 235.0278  1.00270362 23067
UTC
Height (km)
Latitude
Longitude
Inclination
Orbital Period
UTC large
Height (km)
Speed (km/s)
/
Latitude / Longitude
Inclination (degrees)
Orbital Period (minutes)
Azimuth
Elevation
Range (km)
Doppler Factor
iOS Compass Heading
iOS Angle

Next 30 passes for location: Hong Kong

Rise time Rise Azimuth (degrees) Set time Set Azimuth (degrees) Duration Max altitude (degrees)

No matching passes for this satellites